Date String (YYYY-MM-DD hh:mm:ss) UTC,Instrument flags,Ambient pressure (hPa),Sample flow (lpm),Bypass flow (lpm),Sample temperature (°C),Ambient temperature (°C),ASC tube jacket temperature (°C),LED temperature (°C),Box temperature (°C),Sample RH (%),Span deviation,Mass concentration (μg/m³),Mass concentration (μg/m³),Mass concentration (μg/m³)
DateTimeUTC,F1_M11,P_M11,Q1_M11,Q2_M11,T1_M11,T2_M11,T3_M11,T4_M11,T5_M11,U1_M11,ZSPAN_M11,X0_M11,X2_M11,X1_M11
2021-11-05 19:00:00,,0826.9,4.99,0.00,29.9,27.3,00.0,38.9,31.4,08.5,0000.0,0007.64,0001.67,0000.96
2021-11-05 19:01:00,,0827.0,4.99,0.00,29.9,27.7,00.0,38.9,31.5,09.5,0000.0,0007.56,0001.67,0000.94
2021-11-05 19:02:00,,0826.9,5.01,0.00,29.9,28.1,00.0,38.9,31.5,09.0,0000.0,0007.40,0001.80,0000.99
2021-11-05 19:03:00,,0827.0,5.01,0.00,29.9,28.3,00.0,38.9,31.6,08.5,0000.0,0008.41,0001.89,0001.02
2021-11-05 19:04:00,,0826.9,5.00,0.00,29.9,28.6,00.0,38.9,31.7,08.7,0000.0,0008.57,0001.91,0001.04
2021-11-05 19:05:00,,0826.8,5.01,0.00,29.9,28.8,00.0,38.9,31.7,08.1,0000.0,0008.77,0001.90,0001.06
2021-11-05 19:06:00,,0826.9,5.00,0.00,30.0,28.9,00.0,38.9,31.8,08.7,0000.0,0008.89,0001.92,0001.09
2021-11-05 19:07:00,,0826.9,5.00,0.00,30.0,29.0,00.0,38.9,31.8,08.6,0000.0,0009.13,0001.90,0001.10
2021-11-05 19:08:00,,0826.9,5.00,0.00,30.1,29.2,00.0,38.9,31.9,07.9,0000.0,0009.66,0001.85,0001.10
2021-11-05 19:09:00,,0826.9,5.00,0.00,30.1,29.3,00.0,39.0,32.0,07.8,0000.0,0009.65,0001.87,0001.10
2021-11-05 19:10:00,,0826.8,4.99,0.00,30.2,29.4,00.0,39.0,32.0,07.8,0000.0,0009.75,0001.85,0001.09
2021-11-05 19:11:00,,0826.8,5.01,0.00,30.2,29.4,00.0,39.0,32.0,07.7,0000.0,0009.63,0001.76,0001.07
2021-11-05 19:12:00,,0826.8,4.99,0.00,30.2,28.2,00.0,39.0,31.8,07.7,0000.0,0009.47,0001.66,0001.04
2021-11-05 19:13:00,,0826.7,5.01,0.00,30.1,26.2,00.0,39.0,31.3,07.9,0000.0,0008.94,0001.52,0000.99
2021-11-05 19:14:00,,0826.7,5.00,0.00,29.9,26.1,00.0,39.0,31.3,07.9,0000.0,0007.74,0001.42,0000.98
2021-11-05 19:15:00,,0826.8,5.00,0.00,29.9,26.6,00.0,38.9,31.3,07.8,0000.0,0006.32,0001.37,0000.95
2021-11-05 19:16:00,,0826.7,5.00,0.00,29.8,27.0,00.0,38.9,31.3,07.4,0000.0,0005.28,0001.37,0000.93
2021-11-05 19:17:00,,0826.7,5.01,0.00,29.8,27.5,00.0,38.8,31.3,07.3,0000.0,0004.58,0001.33,0000.90
2021-11-05 19:18:00,,0826.8,5.00,0.00,29.8,27.8,00.0,38.8,31.4,07.3,0000.0,0004.47,0001.29,0000.87
2021-11-05 19:19:00,,0826.8,4.99,0.00,29.8,28.1,00.0,38.8,31.4,07.1,0000.0,0003.63,0001.27,0000.85
2021-11-05 19:20:00,,0826.8,5.00,0.00,29.8,28.3,00.0,38.8,31.5,07.0,0000.0,0003.57,0001.25,0000.85
2021-11-05 19:21:00,,0826.8,5.00,0.00,29.9,28.5,00.0,38.8,31.6,07.2,0000.0,0003.27,0001.19,0000.84
2021-11-05 19:22:00,,0826.8,5.00,0.00,29.9,28.7,00.0,38.8,31.6,07.0,0000.0,0003.23,0001.18,0000.82
2021-11-05 19:23:00,,0826.7,4.99,0.00,29.9,28.8,00.0,38.8,31.7,06.9,0000.0,0003.43,0001.20,0000.82
2021-11-05 19:24:00,,0826.7,5.02,0.00,30.0,28.9,00.0,38.9,31.7,06.9,0000.0,0003.45,0001.18,0000.82
2021-11-05 19:25:00,,0826.7,4.99,0.00,30.0,29.0,00.0,38.9,31.8,07.0,0000.0,0003.88,0001.18,0000.81
2021-11-05 19:26:00,,0826.6,5.00,0.00,30.0,29.1,00.0,38.9,31.8,07.2,0000.0,0003.91,0001.15,0000.81
2021-11-05 19:27:00,,0826.7,5.01,0.00,30.1,29.1,00.0,38.9,31.9,07.1,0000.0,0003.91,0001.15,0000.81
2021-11-05 19:28:00,,0826.7,5.00,0.00,30.1,29.2,00.0,38.9,31.9,07.1,0000.0,0003.82,0001.14,0000.82
2021-11-05 19:29:00,,0826.6,5.01,0.00,30.1,28.9,00.0,39.0,31.9,07.1,0000.0,0003.35,0001.16,0000.83
2021-11-05 19:30:00,,0826.7,5.00,0.00,30.1,27.1,00.0,39.0,31.6,07.1,0000.0,0003.05,0001.18,0000.84
2021-11-05 19:31:00,,0826.7,4.99,0.00,29.9,25.9,00.0,38.9,31.3,07.4,0000.0,0003.18,0001.21,0000.85
2021-11-05 19:32:00,,0826.8,5.01,0.00,29.8,26.2,00.0,38.9,31.3,07.5,0000.0,0003.15,0001.22,0000.85
2021-11-05 19:33:00,,0826.7,4.99,0.00,29.8,26.6,00.0,38.9,31.2,07.6,0000.0,0003.07,0001.19,0000.86
2021-11-05 19:34:00,,0826.7,5.00,0.00,29.7,27.1,00.0,38.8,31.2,07.2,0000.0,0002.95,0001.18,0000.85
2021-11-05 19:35:00,,0826.7,4.99,0.00,29.7,27.5,00.0,38.8,31.3,07.3,0000.0,0003.27,0001.23,0000.86
2021-11-05 19:36:00,,0826.7,4.99,0.00,29.7,27.8,00.0,38.8,31.3,07.5,0000.0,0002.99,0001.26,0000.86
2021-11-05 19:37:00,,0826.7,5.00,0.00,29.7,28.1,00.0,38.7,31.4,07.5,0000.0,0003.24,0001.27,0000.87
2021-11-05 19:38:00,,0826.7,5.00,0.00,29.7,28.3,00.0,38.7,31.4,07.2,0000.0,0002.98,0001.25,0000.86
2021-11-05 19:39:00,,0826.6,5.00,0.00,29.8,28.4,00.0,38.8,31.5,07.2,0000.0,0002.99,0001.25,0000.85
2021-11-05 19:40:00,,0826.7,5.00,0.00,29.8,28.6,00.0,38.8,31.5,06.8,0000.0,0003.35,0001.21,0000.84
2021-11-05 19:41:00,,0826.7,5.00,0.00,29.8,28.7,00.0,38.8,31.6,06.7,0000.0,0003.54,0001.24,0000.83
2021-11-05 19:42:00,,0826.7,4.99,0.00,29.9,28.8,00.0,38.8,31.7,06.6,0000.0,0003.61,0001.27,0000.81
2021-11-05 19:43:00,,0826.5,5.00,0.00,29.9,28.9,00.0,38.8,31.7,06.8,0000.0,0003.79,0001.29,0000.81
2021-11-05 19:44:00,,0826.6,4.99,0.00,29.9,29.0,00.0,38.8,31.7,06.5,0000.0,0004.17,0001.34,0000.80
2021-11-05 19:45:00,,0826.6,4.99,0.00,30.0,29.0,00.0,38.8,31.8,06.5,0000.0,0004.24,0001.37,0000.80
2021-11-05 19:46:00,,0826.6,5.00,0.00,30.0,29.1,00.0,38.9,31.8,06.4,0000.0,0003.86,0001.32,0000.79
2021-11-05 19:47:00,,0826.5,4.99,0.00,30.0,29.1,00.0,38.9,31.9,06.8,0000.0,0003.89,0001.28,0000.77
2021-11-05 19:48:00,,0826.5,5.01,0.00,30.1,29.0,00.0,38.9,31.9,06.7,0000.0,0004.60,0001.25,0000.77
2021-11-05 19:49:00,,0826.5,5.00,0.00,30.0,27.4,00.0,38.9,31.5,06.4,0000.0,0004.51,0001.26,0000.76
2021-11-05 19:50:00,,0826.5,4.99,0.00,29.9,26.7,00.0,38.9,31.4,06.5,0000.0,0004.80,0001.28,0000.76
2021-11-05 19:51:00,,0826.5,5.01,0.00,29.9,26.9,00.0,38.9,31.4,06.4,0000.0,0005.83,0001.34,0000.77
2021-11-05 19:52:00,,0826.5,4.99,0.00,29.8,27.3,00.0,38.9,31.4,06.5,0000.0,0006.05,0001.34,0000.78
2021-11-05 19:53:00,,0826.5,5.00,0.00,29.8,27.6,00.0,38.8,31.4,06.4,0000.0,0005.77,0001.27,0000.78
2021-11-05 19:54:00,,0826.5,5.00,0.00,29.8,27.9,00.0,38.8,31.4,06.5,0000.0,0005.80,0001.28,0000.78
2021-11-05 19:55:00,,0826.5,5.00,0.00,29.8,28.2,00.0,38.8,31.4,06.3,0000.0,0005.57,0001.30,0000.78
2021-11-05 19:56:00,,0826.5,5.00,0.00,29.8,28.4,00.0,38.8,31.5,06.3,0000.0,0005.43,0001.25,0000.78
2021-11-05 19:57:00,,0826.5,5.00,0.00,29.8,28.5,00.0,38.8,31.5,06.7,0000.0,0005.58,0001.25,0000.80
2021-11-05 19:58:00,,0826.5,4.99,0.00,29.9,28.6,00.0,38.8,31.6,06.7,0000.0,0005.61,0001.24,0000.80
2021-11-05 19:59:00,,0826.5,5.00,0.00,29.9,28.8,00.0,38.8,31.7,06.5,0000.0,0004.53,0001.28,0000.81
